• In France
  • List of Countries
  • For 7 days
  • Water Temperature
  • Satellite Maps
  • Weather Map
  • Weather Widgets
  • user-avatar
    Login

    Hourly Weather Saitkulovo

    Today, 18 July, Wednesday

    Time Temperature Precipitation Wind Pressure Humidity
    00:00 +18°C° 1.4 mm 3 mps 711 mmHg 90%
    01:00 +18°C° 1.4 mm 3 mps 711 mmHg 91%
    02:00 +17°C° 0.2 mm 3 mps 710 mmHg 91%
    03:00 +17°C° 0.2 mm 3 mps 710 mmHg 90%
    04:00 +17°C° 0 mm 2 mps 710 mmHg 88%
    05:00 +17°C° 0 mm 3 mps 710 mmHg 85%
    06:00 +18°C° 0 mm 3 mps 710 mmHg 82%
    07:00 +18°C° 0 mm 3 mps 711 mmHg 80%
    08:00 +18°C° 0.6 mm 3 mps 711 mmHg 81%
    09:00 +18°C° 0.6 mm 2 mps 710 mmHg 82%
    10:00 +18°C° 0.6 mm 2 mps 710 mmHg 83%
    11:00 +18°C° 2.2 mm 2 mps 710 mmHg 84%
    12:00 +18°C° 2.2 mm 2 mps 710 mmHg 86%
    13:00 +18°C° 2.2 mm 2 mps 710 mmHg 88%
    14:00 +18°C° 0.9 mm 2 mps 710 mmHg 88%
    15:00 +18°C° 0.9 mm 2 mps 710 mmHg 89%
    16:00 +19°C° 0.9 mm 2 mps 710 mmHg 89%
    17:00 +19°C° 0.7 mm 2 mps 710 mmHg 89%
    18:00 +19°C° 0.7 mm 3 mps 710 mmHg 89%
    19:00 +19°C° 0.7 mm 3 mps 710 mmHg 90%
    20:00 +18°C° 0.2 mm 3 mps 710 mmHg 91%
    21:00 +18°C° 0.2 mm 2 mps 709 mmHg 91%
    22:00 +17°C° 0.2 mm 2 mps 709 mmHg 92%
    23:00 +17°C° 0 mm 2 mps 709 mmHg 93%

    Tomorrow, 19 July, Thursday

    Time Temperature Precipitation Wind Pressure Humidity
    00:00 +16°C° 0 mm 2 mps 709 mmHg 94%
    01:00 +16°C° 0 mm 1 mps 709 mmHg 95%
    02:00 +15°C° 0 mm 1 mps 709 mmHg 96%
    03:00 +15°C° 0 mm 1 mps 709 mmHg 96%
    04:00 +15°C° 0 mm 1 mps 709 mmHg 97%
    05:00 +16°C° 0.1 mm 1 mps 710 mmHg 95%
    06:00 +18°C° 0.1 mm 1 mps 710 mmHg 94%
    07:00 +17°C° 0.1 mm 0 mps 710 mmHg 92%
    08:00 +21°C° 0.1 mm 1 mps 710 mmHg 86%
    09:00 +22°C° 0.1 mm 1 mps 710 mmHg 79%
    10:00 +24°C° 0.1 mm 1 mps 711 mmHg 73%
    11:00 +25°C° 0.7 mm 1 mps 711 mmHg 68%
    12:00 +26°C° 0.7 mm 1 mps 711 mmHg 63%
    13:00 +27°C° 0.7 mm 2 mps 711 mmHg 58%
    14:00 +27°C° 1 mm 1 mps 711 mmHg 62%
    15:00 +27°C° 1 mm 1 mps 711 mmHg 65%
    16:00 +26°C° 1 mm 1 mps 711 mmHg 69%
    17:00 +25°C° 0.4 mm 1 mps 711 mmHg 73%
    18:00 +23°C° 0.4 mm 0 mps 711 mmHg 76%
    19:00 +22°C° 0.4 mm 0 mps 711 mmHg 80%
    20:00 +20°C° 0.1 mm 0 mps 711 mmHg 82%
    21:00 +19°C° 0.1 mm 0 mps 711 mmHg 84%
    22:00 +17°C° 0.1 mm 0 mps 711 mmHg 87%
    23:00 +17°C° 0 mm 0 mps 711 mmHg 88%

    Day after tomorrow, 20 July, Friday

    Time Temperature Precipitation Wind Pressure Humidity
    00:00 +19°C° 0 mm 1 mps 711 mmHg 89%
    01:00 +18°C° 0 mm 1 mps 710 mmHg 90%
    02:00 +18°C° 0 mm 1 mps 711 mmHg 91%
    03:00 +18°C° 0 mm 1 mps 711 mmHg 93%
    04:00 +16°C° 0 mm 1 mps 711 mmHg 94%
    05:00 +18°C° 0 mm 1 mps 711 mmHg 93%
    06:00 +18°C° 0 mm 2 mps 711 mmHg 91%
    07:00 +19°C° 0 mm 2 mps 711 mmHg 90%
    08:00 +21°C° 0 mm 2 mps 711 mmHg 84%
    09:00 +23°C° 0 mm 2 mps 712 mmHg 77%
    10:00 +25°C° 0 mm 3 mps 712 mmHg 71%
    11:00 +25°C° 0.2 mm 3 mps 712 mmHg 71%
    12:00 +26°C° 0.2 mm 3 mps 712 mmHg 70%
    13:00 +26°C° 0.2 mm 4 mps 712 mmHg 69%
    14:00 +26°C° 0.3 mm 4 mps 712 mmHg 70%
    15:00 +26°C° 0.3 mm 4 mps 712 mmHg 71%
    16:00 +26°C° 0.3 mm 4 mps 712 mmHg 72%
    17:00 +25°C° 0.1 mm 3 mps 712 mmHg 77%
    18:00 +24°C° 0.1 mm 3 mps 712 mmHg 81%
    19:00 +22°C° 0.1 mm 3 mps 712 mmHg 86%
    20:00 +21°C° 0 mm 3 mps 712 mmHg 89%
    21:00 +20°C° 0 mm 3 mps 712 mmHg 92%
    22:00 +19°C° 0 mm 3 mps 712 mmHg 95%
    23:00 +18°C° 0 mm 3 mps 712 mmHg 96%

    21 July, Saturday

    Time Temperature Precipitation Wind Pressure Humidity
    00:00 +18°C° 0 mm 3 mps 711 mmHg 96%
    01:00 +18°C° 0 mm 4 mps 711 mmHg 97%
    02:00 +18°C° 0 mm 4 mps 711 mmHg 96%
    03:00 +17°C° 0 mm 4 mps 711 mmHg 96%
    04:00 +17°C° 0 mm 4 mps 712 mmHg 95%
    05:00 +17°C° 0 mm 4 mps 712 mmHg 94%
    06:00 +17°C° 0 mm 4 mps 712 mmHg 94%
    07:00 +16°C° 0 mm 5 mps 712 mmHg 93%
    08:00 +16°C° 0 mm 5 mps 712 mmHg 91%
    09:00 +17°C° 0 mm 5 mps 712 mmHg 88%
    10:00 +17°C° 0 mm 5 mps 712 mmHg 86%
    11:00 +19°C° 0 mm 5 mps 712 mmHg 84%
    12:00 +20°C° 0 mm 6 mps 713 mmHg 82%
    13:00 +21°C° 0 mm 6 mps 713 mmHg 79%
    14:00 +21°C° 0.1 mm 6 mps 713 mmHg 77%
    15:00 +22°C° 0.1 mm 6 mps 713 mmHg 75%
    16:00 +23°C° 0.1 mm 6 mps 713 mmHg 73%
    17:00 +22°C° 0.2 mm 6 mps 713 mmHg 76%
    18:00 +21°C° 0.2 mm 6 mps 713 mmHg 78%
    19:00 +21°C° 0.2 mm 6 mps 713 mmHg 80%
    20:00 +20°C° 0 mm 6 mps 713 mmHg 81%
    21:00 +19°C° 0 mm 6 mps 713 mmHg 82%
    22:00 +17°C° 0 mm 6 mps 713 mmHg 82%
    23:00 +17°C° 0 mm 6 mps 713 mmHg 84%

    22 July, Sunday

    Time Temperature Precipitation Wind Pressure Humidity
    00:00 +16°C° 0 mm 6 mps 713 mmHg 85%
    01:00 +16°C° 0 mm 6 mps 713 mmHg 86%
    02:00 +15°C° 0 mm 6 mps 713 mmHg 87%
    03:00 +15°C° 0 mm 6 mps 713 mmHg 88%
    04:00 +14°C° 0 mm 6 mps 713 mmHg 89%
    05:00 +14°C° 0 mm 6 mps 713 mmHg 86%
    06:00 +14°C° 0 mm 6 mps 714 mmHg 84%
    07:00 +14°C° 0 mm 6 mps 714 mmHg 82%
    08:00 +16°C° 0 mm 6 mps 714 mmHg 76%
    09:00 +17°C° 0 mm 7 mps 714 mmHg 70%
    10:00 +18°C° 0 mm 7 mps 714 mmHg 65%
    11:00 +20°C° 0 mm 7 mps 714 mmHg 61%
    12:00 +20°C° 0 mm 7 mps 714 mmHg 58%
    13:00 +21°C° 0 mm 7 mps 714 mmHg 55%
    14:00 +21°C° 0 mm 7 mps 714 mmHg 55%
    15:00 +21°C° 0 mm 7 mps 714 mmHg 55%
    16:00 +21°C° 0 mm 7 mps 714 mmHg 55%
    17:00 +20°C° 0 mm 6 mps 714 mmHg 59%
    18:00 +19°C° 0 mm 6 mps 714 mmHg 63%
    19:00 +17°C° 0 mm 5 mps 714 mmHg 67%
    20:00 +15°C° 0 mm 5 mps 714 mmHg 69%
    21:00 +14°C° 0 mm 5 mps 715 mmHg 71%
    22:00 +13°C° 0 mm 5 mps 715 mmHg 72%
    23:00 +13°C° 0 mm 5 mps 715 mmHg 73%

    23 July, Monday

    Time Temperature Precipitation Wind Pressure Humidity
    00:00 +12°C° 0 mm 4 mps 715 mmHg 74%
    01:00 +11°C° 0 mm 4 mps 715 mmHg 74%
    02:00 +11°C° 0 mm 4 mps 715 mmHg 77%
    03:00 +10°C° 0 mm 4 mps 715 mmHg 79%
    04:00 +10°C° 0 mm 4 mps 715 mmHg 81%
    05:00 +11°C° 0 mm 4 mps 715 mmHg 77%
    06:00 +10°C° 0 mm 5 mps 715 mmHg 74%
    07:00 +12°C° 0 mm 5 mps 715 mmHg 71%
    08:00 +14°C° 0 mm 5 mps 716 mmHg 66%
    09:00 +15°C° 0 mm 5 mps 716 mmHg 61%
    10:00 +16°C° 0 mm 6 mps 716 mmHg 57%
    11:00 +17°C° 0 mm 6 mps 716 mmHg 55%
    12:00 +19°C° 0 mm 6 mps 716 mmHg 53%
    13:00 +19°C° 0 mm 6 mps 716 mmHg 51%
    14:00 +20°C° 0 mm 5 mps 716 mmHg 51%
    15:00 +20°C° 0 mm 5 mps 716 mmHg 52%
    16:00 +20°C° 0 mm 5 mps 716 mmHg 52%
    17:00 +19°C° 0 mm 4 mps 716 mmHg 57%
    18:00 +18°C° 0 mm 4 mps 716 mmHg 62%
    19:00 +17°C° 0 mm 3 mps 716 mmHg 67%
    20:00 +14°C° 0 mm 3 mps 716 mmHg 72%
    21:00 +13°C° 0 mm 3 mps 716 mmHg 77%
    22:00 +12°C° 0 mm 2 mps 716 mmHg 82%
    23:00 +12°C° 0 mm 2 mps 716 mmHg 84%
    Show more